Regional Weather Roundup
Issued by NWS Cleveland, OH

Home | Current Version | Previous Version | Text Only | Print | Product List | Glossary Off
Versions: 1 2 3 4 5 6 7 8 9 10 11 12 13 14 15 16 17 18 19 20 21 22 23 24 25 26 27 28 29 30 31 32 33 34 35 36 37 38 39 40 41 42 43 44 45 46 47 48 49 50

000
ASUS41 KCLE 201610
RWRCLE
OHIO REGIONAL WEATHER ROUNDUP
NATIONAL WEATHER SERVICE WILMINGTON, OH
1200 PM EDT WED SEP 20 2017

NOTE: "FAIR" INDICATES FEW OR NO CLOUDS BELOW 12,000 FEET WITH NO
SIGNIFICANT WEATHER AND/OR OBSTRUCTIONS TO VISIBILITY.

OHZ001>008-015>018-024>027-034-035-043-044-201700-
   NORTHWEST OHIO

CITY           SKY/WX    TMP DP  RH WIND       PRES   REMARKS
DEFIANCE       CLOUDY    72  67  84 SW3       30.03R
FINDLAY        PTSUNNY   79  68  69 SW6       30.01F
TOLEDO EXPRESS CLOUDY    72  69  90 CALM      30.01S
TOLEDO EXEC    PTSUNNY   77  68  73 VRB3      30.02S
LIMA           FAIR      77  70  79 VRB5      30.03F
$$

OHZ009>014-019>023-028>033-038-089-201700-
   NORTHEAST OHIO

CITY           SKY/WX    TMP DP  RH WIND       PRES   REMARKS
CLE-HOPKINS    FAIR      83  65  54 CALM      30.05F
CLE-LAKEFRONT  FAIR      77  65  66 N3        30.03S
CUY CO. ARPT   MOSUNNY   81  66  61 N7        30.05S
LORAIN-ELYRIA  PTSUNNY   76  62  62 VRB3      30.04F
ASHTABULA      FAIR      79  65  62 CALM      30.05S
AKRON-CANTON   PTSUNNY   79  65  62 S6        30.05F
WOOSTER        FAIR      75  67  76 SW3       30.06F
MANSFIELD      FAIR      76  66  71 VRB3      30.06F
YOUNGSTOWN     PTSUNNY   80  65  59 VRB7      30.05F
$$

OHZ042-051>053-060>062-070>072-077>081-201700-
  SOUTHWEST OHIO

CITY           SKY/WX    TMP DP  RH WIND       PRES   REMARKS
CINC-COVINGTON PTSUNNY   78  72  81 SW7       30.05S
CINC-LUNKEN    FAIR      79  73  82 S5        30.04F
HAMILTON       FAIR      79  71  76 VRB3      30.05F
DAYTON         PTSUNNY   77  69  76 SW6       30.05F
WRIGHT-PAT AFB PTSUNNY   77  72  84 S5        30.04F
DAYTON GENERAL FAIR      77  69  76 S6        30.04F
WILMINGTON     FAIR      77  70  79 CALM      30.05F
$$

OHZ036-037-039>041-045>050-054>059-063>069-073>076-082>088-201700-
  CENTRAL AND SOUTHEAST OHIO

CITY           SKY/WX    TMP DP  RH WIND       PRES   REMARKS
COLUMBUS       FAIR      78  68  71 CALM      30.04S
OSU AIRPORT    FAIR      79  68  69 S5        30.04F
BOLTON FIELD   SUNNY     77  66  69 CALM      30.05F
RICKENBACK AFB PTSUNNY   77  67  72 NW3       30.04S HAZE
NEWARK         FAIR      78  67  68 CALM      30.05S
MARION         FAIR      79  66  64 SE7       30.04F
LANCASTER      FAIR      76  67  73 CALM      30.06R
ZANESVILLE     LGT RAIN  69  66  90 CALM      30.07R FOG
NEW PHILLY     PTSUNNY   80  67  64 NW6       30.06S
$$




USA.gov is the U.S. government's official web portal to all federal, state and local government web resources and services.